PBO Station Position Time Series. Reference Frame : NAM14
Format Version,1.1.0
4-character ID,BAIE
Station name,BAIE_COMEAU,_Can
Begin Date, 2003-03-04
End Date, 2019-10-07
Release Date, 2019-10-08
Reference position, 49.1868266614 North Latitude, -68.2633289299 East Longitude, 27.50459 meters elevation,
Date, North (mm), East (mm), Vertical (mm), North Std. Deviation (mm), East Std. Deviation (mm),              Vertical Std. Deviation (mm), Quality,
2003-03-04,0.00, 0.00, 0.00, 2.42, 1.71, 7.85, repro,
2003-03-05,1.32, 2.22, -6.67, 2.36, 1.67, 7.56, repro,
2003-03-06,0.45, 2.52, -0.87, 2.33, 1.66, 7.47, repro,
2003-03-07,-0.73, 1.98, -1.96, 2.48, 1.77, 7.81, repro,
2003-03-08,-0.21, 1.59, 3.12, 2.49, 1.75, 7.84, repro,
2003-03-09,-0.58, 2.73, 1.83, 2.99, 2.12, 9.67, repro,
2003-03-10,-0.57, 2.12, 1.34, 2.37, 1.70, 7.69, repro,
2003-03-11,-0.48, 2.84, -0.80, 2.34, 1.65, 7.45, repro,
2003-03-12,0.23, 2.41, -0.29, 2.46, 1.74, 8.04, repro,
2003-03-13,-0.28, 0.56, 3.38, 2.51, 1.82, 8.34, repro,
2003-03-14,0.28, 0.98, 7.44, 2.61, 1.85, 8.52, repro,
2003-03-15,1.96, 0.69, -2.32, 2.55, 1.80, 8.13, repro,
2003-03-16,-0.29, 1.83, 4.19, 2.53, 1.77, 8.05, repro,
2003-03-17,-0.07, 0.25, -7.31, 3.09, 2.14, 9.94, repro,
2003-03-18,-0.25, -0.15, -8.38, 2.92, 2.11, 9.88, repro,
2003-03-19,-2.03, 1.70, -3.24, 2.51, 1.79, 8.08, repro,
2003-03-20,-2.14, -0.22, 7.95, 2.59, 1.78, 8.18, repro,
2003-03-21,-0.61, 2.97, 9.11, 2.52, 1.76, 7.98, repro,
2003-03-22,-0.16, 0.84, 2.18, 2.51, 1.73, 7.84, repro,
2003-03-23,-0.87, 1.85, 8.50, 2.48, 1.77, 8.06, repro,
2003-03-24,-0.42, 1.23, 3.62, 2.41, 1.69, 7.64, repro,
2003-03-25,-0.40, 1.37, 10.55, 2.62, 1.82, 8.28, repro,
2003-03-26,-2.88, -0.22, 11.89, 2.54, 1.83, 8.20, repro,
2003-03-27,-0.90, -0.26, 0.89, 2.59, 1.81, 8.19, repro,
2003-03-28,0.19, -0.07, 1.40, 2.59, 1.84, 8.12, repro,
2003-03-29,-1.71, 1.38, 1.77, 2.74, 1.90, 8.57, repro,
2003-03-30,-0.16, -0.35, 3.11, 2.49, 1.79, 8.12, repro,
2003-03-31,-0.75, 1.17, 4.45, 2.48, 1.75, 7.93, repro,
2003-04-01,1.42, 0.84, 10.36, 2.46, 1.70, 7.63, repro,
2003-04-02,-0.77, 0.44, -2.23, 2.50, 1.80, 7.95, repro,
2003-04-03,-0.70, 0.24, 2.16, 2.44, 1.77, 7.83, repro,
2003-04-04,0.42, 1.02, -3.59, 2.52, 1.85, 8.19, repro,
2003-04-05,-1.06, 1.53, 1.11, 2.39, 1.68, 7.49, repro,
2003-04-06,-0.40, 1.78, -2.68, 2.38, 1.69, 7.61, repro,
2003-04-07,-1.08, -0.38, -3.23, 2.44, 1.76, 7.93, repro,
2003-04-08,-0.38, -0.13, -4.42, 2.34, 1.70, 7.62, repro,
2003-04-09,-0.16, 0.94, 4.83, 2.36, 1.66, 7.47, repro,
2003-04-10,-1.79, 1.25, 2.80, 2.43, 1.70, 7.57, repro,
2003-04-11,-0.43, 0.78, 3.59, 2.32, 1.68, 7.58, repro,
2003-04-12,-0.89, 0.28, 3.68, 2.32, 1.66, 7.43, repro,
2003-04-13,-0.72, 0.43, 6.81, 2.28, 1.63, 7.32, repro,
2003-04-14,0.22, -0.06, 10.12, 2.26, 1.65, 7.35, repro,
2003-04-15,5.08, -0.76, 17.15, 2.50, 1.76, 8.00, repro,
2003-04-16,-0.55, 0.83, 18.04, 2.25, 1.63, 7.27, repro,
2003-04-17,-0.42, 0.65, 6.05, 2.31, 1.66, 7.44, repro,
2003-04-18,-0.91, 1.19, 7.97, 2.34, 1.65, 7.47, repro,
2003-04-19,-0.03, 0.52, 2.87, 2.27, 1.64, 7.42, repro,
2003-04-20,-0.75, 1.03, 7.70, 2.24, 1.62, 7.24, repro,
2003-04-21,-0.45, 1.71, 10.60, 2.27, 1.63, 7.42, repro,
2003-04-22,-0.11, 0.99, 16.53, 2.35, 1.69, 7.53, repro,
2003-04-23,0.27, 0.29, 13.65, 2.28, 1.63, 7.35, repro,
2003-04-24,-0.80, 0.76, 15.49, 2.35, 1.69, 7.47, repro,
2003-04-25,-0.90, 0.28, 13.21, 2.30, 1.64, 7.39, repro,
2003-04-26,0.01, 0.65, 8.96, 2.30, 1.65, 7.40, repro,
2003-04-27,2.08, 0.62, 5.86, 2.25, 1.63, 7.33, repro,
2003-04-28,-0.31, 0.37, 13.84, 2.78, 2.20, 10.28, repro,
2003-04-29,0.12, 0.86, 15.54, 2.36, 1.72, 7.75, repro,
2003-04-30,-2.28, 0.50, 15.95, 2.38, 1.70, 7.77, repro,
2003-05-01,-0.58, 0.12, 12.33, 2.34, 1.69, 7.66, repro,
2003-05-02,-0.45, 0.55, 8.13, 2.31, 1.68, 7.57, repro,
2003-05-03,0.31, 0.50, 8.58, 2.27, 1.63, 7.39, repro,
2003-05-04,-0.78, 0.61, 8.55, 2.26, 1.64, 7.39, repro,
2003-05-05,0.71, 0.96, 6.71, 2.26, 1.64, 7.42, repro,
2003-05-06,0.96, 1.35, 6.66, 2.31, 1.66, 7.51, repro,
2003-05-07,-0.38, 1.05, 15.84, 2.24, 1.66, 7.51, repro,
2003-05-08,-0.23, 1.08, 6.47, 2.30, 1.68, 7.52, repro,
2003-05-09,-0.32, 0.47, 2.85, 2.41, 1.74, 7.82, repro,
2003-05-10,0.67, 2.24, 9.92, 2.37, 1.69, 7.75, repro,
2003-05-11,0.84, 1.68, 18.14, 2.29, 1.64, 7.44, repro,
2003-05-12,0.03, 1.97, 26.60, 2.30, 1.64, 7.44, repro,
2003-05-13,0.64, 1.86, 15.92, 2.34, 1.65, 7.43, repro,
2003-05-14,1.70, 1.11, 12.43, 2.35, 1.70, 7.72, repro,
2003-05-15,2.14, 0.55, 8.81, 2.32, 1.67, 7.53, repro,
2003-05-16,0.93, 2.13, 9.38, 2.27, 1.66, 7.51, repro,
2003-05-17,1.30, 0.50, 6.57, 2.36, 1.70, 7.70, repro,
2003-05-18,1.80, 0.26, 1.09, 2.38, 1.68, 7.63, repro,
2003-05-19,1.14, 0.65, 2.52, 2.23, 1.62, 7.34, repro,
2003-05-20,0.45, 0.81, 10.22, 2.38, 1.70, 7.77, repro,
2003-05-21,2.70, 0.69, 2.67, 2.61, 1.90, 8.92, repro,
2003-05-22,1.15, 0.83, 6.35, 2.31, 1.67, 7.50, repro,
2003-05-23,0.45, 0.90, 6.69, 2.36, 1.67, 7.51, repro,
2003-05-24,1.45, 0.23, 1.94, 2.26, 1.64, 7.37, repro,
2003-05-25,0.72, -0.06, 7.62, 2.28, 1.63, 7.40, repro,
2003-05-26,1.30, 0.67, 12.68, 2.24, 1.64, 7.31, repro,
2003-05-27,0.56, 1.32, 10.89, 2.39, 1.74, 7.76, repro,
2003-05-28,-0.32, 0.95, 17.52, 2.41, 1.76, 7.83, repro,
2003-05-29,1.03, 2.09, 15.40, 2.56, 1.87, 8.26, repro,
2003-05-30,1.43, 0.88, 20.48, 2.42, 1.79, 7.96, repro,
2003-05-31,1.01, 1.68, 14.15, 2.21, 1.64, 7.29, repro,
2003-06-01,1.78, 1.11, 15.80, 2.23, 1.65, 7.35, repro,
2003-06-02,1.21, 0.47, 15.64, 2.42, 1.78, 8.01, repro,
2003-06-03,1.53, 1.02, 19.95, 2.32, 1.73, 7.73, repro,
2003-06-04,0.54, 1.01, 16.41, 2.29, 1.71, 7.68, repro,
2003-06-05,0.75, 2.29, 11.15, 2.34, 1.73, 7.88, repro,
2003-06-06,2.24, 2.50, 17.21, 2.49, 1.86, 8.55, repro,
2003-06-07,1.21, 1.00, 11.50, 2.27, 1.68, 7.55, repro,
2003-06-09,2.24, 1.99, 20.04, 2.24, 1.67, 7.49, repro,
2003-06-10,-0.96, 0.56, 18.75, 2.26, 1.69, 7.57, repro,
2003-06-11,0.46, 0.99, 16.24, 2.22, 1.66, 7.40, repro,
2003-06-12,0.95, 0.64, 6.93, 2.24, 1.67, 7.43, repro,
2003-06-13,1.23, 1.23, 10.02, 2.23, 1.66, 7.42, repro,
2003-06-14,-0.30, 1.23, 12.37, 2.26, 1.67, 7.48, repro,
2003-06-15,1.43, 0.09, 11.89, 2.30, 1.71, 7.70, repro,
2003-06-16,1.66, -0.57, 6.04, 2.40, 1.79, 7.96, repro,
2003-06-17,-0.27, 1.49, 16.17, 2.40, 1.72, 7.83, repro,
2003-06-18,1.08, 1.68, 18.89, 2.41, 1.83, 7.98, repro,
2003-06-19,-1.32, 1.91, 11.02, 2.23, 1.67, 7.55, repro,
2003-06-20,-2.31, 2.05, 19.83, 2.31, 1.71, 7.67, repro,
2003-06-21,-3.11, 1.18, 27.14, 2.44, 1.77, 8.05, repro,
2003-06-22,-0.55, 1.40, 21.18, 2.38, 1.84, 8.36, repro,
2003-06-23,0.37, 0.52, 17.50, 2.33, 1.78, 7.99, repro,
2003-06-24,0.91, 2.00, 22.18, 2.53, 1.93, 8.73, repro,
2003-06-25,0.16, 1.49, 16.41, 2.55, 1.91, 8.69, repro,
2003-06-26,-2.95, 1.27, 20.40, 2.49, 1.81, 8.24, repro,
2003-06-27,1.26, 1.07, 16.58, 2.36, 1.74, 7.84, repro,
2003-06-28,1.73, 1.18, 6.39, 2.41, 1.79, 8.02, repro,
2003-06-29,1.65, 0.41, 13.46, 2.36, 1.72, 7.70, repro,
2003-06-30,1.43, 1.25, 19.81, 2.30, 1.70, 7.59, repro,
2003-07-01,-0.37, 0.51, 11.70, 2.39, 1.74, 7.81, repro,
2003-07-02,1.27, 0.21, 14.62, 2.31, 1.67, 7.47, repro,
2003-07-03,0.57, 0.56, 20.57, 2.40, 1.69, 7.48, repro,
2003-07-04,1.49, 0.43, 19.70, 2.31, 1.67, 7.42, repro,
2003-07-05,2.03, 0.07, 19.89, 2.28, 1.67, 7.45, repro,
2003-07-06,1.61, 1.12, 17.14, 2.28, 1.72, 7.69, repro,
2003-07-07,0.93, -0.48, 15.56, 2.38, 1.76, 7.85, repro,
2003-07-08,0.67, 0.91, 23.76, 2.38, 1.76, 7.89, repro,
2003-07-09,-1.29, 1.10, 13.77, 2.41, 1.78, 8.03, repro,
2003-07-10,0.06, 0.18, 14.34, 2.41, 1.78, 7.98, repro,
2003-07-11,1.44, 1.13, 9.61, 2.43, 1.87, 8.49, repro,
2003-07-12,1.86, 0.89, 18.67, 2.41, 1.74, 7.89, repro,
2003-07-13,-0.30, 0.18, 20.99, 2.33, 1.70, 7.58, repro,
2003-07-14,0.63, 0.27, 17.02, 2.38, 1.73, 7.70, repro,
2003-07-15,-0.52, -0.40, 22.74, 2.51, 1.82, 8.23, repro,
2003-07-16,-0.17, 0.27, 22.30, 2.47, 1.82, 8.28, repro,
2003-07-17,-0.56, 0.76, 17.02, 2.40, 1.88, 8.41, repro,
2003-07-18,-1.43, 0.30, 13.72, 2.31, 1.76, 7.92, repro,
2003-07-19,-0.11, 0.22, 23.15, 2.31, 1.69, 7.55, repro,
2003-07-20,0.07, 0.48, 16.44, 2.32, 1.69, 7.52, repro,
2003-07-21,0.14, -0.10, 14.19, 2.41, 1.72, 7.69, repro,
2003-07-22,1.15, 0.07, 18.88, 2.23, 1.67, 7.39, repro,
2003-07-23,1.07, 0.44, 21.42, 2.29, 1.69, 7.63, repro,
2003-07-24,1.66, 0.66, 17.58, 2.25, 1.65, 7.40, repro,
2003-07-25,2.40, 1.16, 19.59, 2.35, 1.70, 7.62, repro,
2003-07-26,-0.11, -0.23, 25.46, 2.36, 1.70, 7.66, repro,
2003-07-27,1.76, 0.52, 17.41, 2.33, 1.72, 7.79, repro,
2003-07-28,1.39, -0.23, 20.14, 2.29, 1.68, 7.42, repro,
2003-07-29,0.52, 1.05, 24.04, 2.31, 1.69, 7.49, repro,
2003-07-31,0.59, 0.03, 16.14, 2.22, 1.65, 7.37, repro,
2003-08-01,0.99, 1.48, 11.20, 2.34, 1.79, 8.06, repro,
2003-08-02,2.67, 0.87, 13.83, 2.27, 1.71, 7.61, repro,
2003-08-03,-0.24, 0.48, 13.39, 2.34, 1.73, 7.75, repro,
2003-08-04,1.05, -0.09, 15.83, 2.35, 1.74, 7.70, repro,
2003-08-06,-0.18, 0.13, 15.05, 2.46, 1.86, 8.35, repro,
2003-08-07,1.55, 0.64, 15.05, 2.39, 1.82, 8.11, repro,
2003-08-08,-0.84, 0.77, 12.31, 2.38, 1.78, 8.17, repro,
2003-08-09,1.16, -0.87, 12.36, 2.53, 1.95, 8.55, repro,
2003-08-10,2.97, -1.66, 13.54, 3.59, 2.86, 12.64, repro,
2003-08-11,-0.97, 1.11, 15.87, 2.32, 1.69, 7.55, repro,
2003-08-12,1.03, -0.36, 10.28, 2.29, 1.74, 7.76, repro,
2003-08-14,-0.40, 0.15, 18.76, 2.36, 1.77, 7.85, repro,
2003-08-15,4.13, 1.03, 10.60, 2.33, 1.74, 7.78, repro,
2003-08-16,1.29, -0.22, 16.29, 2.24, 1.67, 7.38, repro,
2003-08-17,0.28, 1.01, 18.75, 2.27, 1.69, 7.56, repro,
2003-08-18,0.19, 0.74, 9.98, 2.84, 2.04, 9.80, repro,
2003-08-19,1.25, 1.30, 4.93, 3.02, 2.19, 9.47, repro,
2003-08-20,1.80, 1.46, 15.11, 2.28, 1.69, 7.53, repro,
2003-08-21,0.24, 1.44, 15.27, 2.32, 1.73, 7.81, repro,
2003-08-22,0.87, 2.30, 24.24, 2.34, 1.73, 7.78, repro,
2003-08-23,0.95, 0.98, 12.76, 2.27, 1.72, 7.62, repro,
2003-08-24,2.07, 0.82, 15.70, 2.24, 1.64, 7.31, repro,
2003-08-25,0.83, 0.75, 16.21, 2.25, 1.66, 7.35, repro,
2003-08-26,1.35, -0.30, 16.77, 2.23, 1.66, 7.27, repro,
2003-08-27,0.94, 0.88, 18.09, 2.22, 1.64, 7.28, repro,
2003-08-28,3.01, 1.19, 14.74, 2.29, 1.67, 7.42, repro,
2003-08-29,1.88, 0.67, 14.45, 2.23, 1.65, 7.36, repro,
2003-08-30,2.56, 1.84, 5.74, 2.22, 1.66, 7.35, repro,
2003-08-31,1.60, 0.81, 10.14, 2.29, 1.69, 7.45, repro,
2003-09-01,1.72, -1.62, 11.53, 2.37, 1.73, 7.57, repro,
2003-09-02,2.44, -1.07, 9.22, 2.22, 1.64, 7.27, repro,
2003-09-03,2.50, 0.62, 12.86, 2.24, 1.65, 7.32, repro,
2003-09-04,2.13, 1.41, 19.58, 2.23, 1.66, 7.38, repro,
2003-09-05,2.06, 1.48, 12.65, 2.25, 1.67, 7.43, repro,
2003-09-06,3.15, 0.18, 9.01, 2.22, 1.65, 7.33, repro,
2003-09-07,1.62, -1.00, 14.65, 2.24, 1.65, 7.36, repro,
2003-09-08,2.80, 0.81, 9.89, 2.26, 1.65, 7.34, repro,
2003-09-09,0.84, -0.06, 11.04, 2.26, 1.65, 7.37, repro,
2003-09-10,3.82, -1.65, 11.47, 2.27, 1.68, 7.50, repro,
2003-09-11,-0.02, 1.65, 5.85, 2.24, 1.66, 7.35, repro,
2003-09-12,0.61, -0.93, 11.14, 2.27, 1.68, 7.47, repro,
2003-09-13,2.03, -0.64, 12.27, 2.26, 1.65, 7.39, repro,
2003-09-14,2.51, 0.40, 8.96, 2.32, 1.69, 7.61, repro,
2003-09-15,1.23, 0.69, 11.93, 2.43, 1.80, 8.20, repro,
2003-09-16,-0.33, 1.38, 13.76, 2.26, 1.67, 7.42, repro,
2003-09-17,1.53, -0.58, 6.94, 2.28, 1.71, 7.58, repro,
2003-09-18,-0.22, -1.10, 15.46, 2.27, 1.66, 7.42, repro,
2003-09-19,1.67, -0.10, 11.82, 2.28, 1.68, 7.48, repro,
2003-09-20,3.77, -2.01, 2.49, 2.44, 1.80, 8.20, repro,
2003-09-21,1.44, -0.93, 11.48, 2.38, 1.74, 7.79, repro,
2003-09-22,1.58, 0.12, 14.00, 2.36, 1.71, 7.60, repro,
2003-09-23,2.14, -0.05, 8.06, 2.35, 1.75, 7.74, repro,
2003-09-24,1.26, 0.16, 14.81, 2.37, 1.75, 8.01, repro,
2003-09-25,-1.33, -0.30, 14.30, 2.34, 1.74, 7.75, repro,
2003-09-26,1.45, 0.40, 18.48, 2.43, 1.78, 8.03, repro,
2003-09-27,1.47, 0.10, 15.29, 2.36, 1.74, 7.80, repro,
2003-09-28,1.04, 0.24, 25.35, 2.79, 2.00, 8.85, repro,
2003-09-29,0.19, 1.66, 14.17, 3.60, 2.62, 11.87, repro,
2003-09-30,2.19, -1.48, 9.18, 2.49, 1.84, 8.26, repro,
2003-10-01,1.78, -0.91, 12.84, 2.31, 1.68, 7.57, repro,
2003-10-04,1.28, -0.01, 20.78, 2.39, 1.72, 7.80, repro,
2003-10-05,0.73, -1.03, 16.84, 2.38, 1.74, 7.77, repro,
2003-10-06,1.55, -0.47, 20.57, 2.39, 1.71, 7.61, repro,
2003-10-07,0.40, 0.26, 20.86, 2.37, 1.72, 7.56, repro,
2003-10-08,1.40, 0.16, 15.67, 2.45, 1.77, 7.91, repro,
2003-10-09,1.82, -1.00, 16.13, 2.33, 1.68, 7.51, repro,
2003-10-10,1.89, -1.90, 19.89, 2.38, 1.75, 7.79, repro,
2003-10-11,0.77, 0.38, 17.43, 2.28, 1.66, 7.41, repro,
2003-10-12,0.81, 0.18, 23.87, 2.38, 1.78, 8.06, repro,
2003-10-13,0.52, 0.34, 28.05, 2.32, 1.70, 7.60, repro,
2003-10-14,1.90, 0.72, 25.18, 2.42, 1.73, 7.80, repro,
2003-10-15,1.70, 0.04, 20.91, 2.31, 1.68, 7.54, repro,
2003-10-16,0.81, 0.74, 26.59, 2.25, 1.63, 7.29, repro,
2003-10-17,3.10, -0.98, 21.43, 2.24, 1.64, 7.22, repro,
2003-10-18,0.99, -0.07, 17.38, 2.23, 1.65, 7.26, repro,
2003-10-19,1.03, -0.30, 17.66, 2.33, 1.69, 7.55, repro,
2003-10-20,1.95, -0.58, 21.01, 2.35, 1.70, 7.67, repro,
2003-10-21,3.02, 0.79, 20.95, 2.27, 1.66, 7.39, repro,
2003-10-22,2.00, 0.27, 25.38, 2.37, 1.71, 7.71, repro,
2003-10-23,0.33, -1.31, 21.61, 2.49, 1.93, 8.16, repro,
2003-10-24,4.71, -0.04, 29.67, 2.80, 2.24, 9.59, repro,
2003-10-25,2.20, 0.28, 15.63, 2.24, 1.63, 7.27, repro,
2003-10-26,0.87, 0.03, 18.18, 2.23, 1.62, 7.30, repro,
2003-10-27,3.21, 0.68, 15.31, 2.30, 1.66, 7.59, repro,
2003-10-28,0.56, -0.12, 19.22, 2.32, 1.71, 7.65, repro,
2003-10-29,1.50, -0.25, 16.22, 3.14, 2.30, 9.82, repro,
2003-10-30,0.90, -0.62, 12.95, 2.82, 2.07, 9.10, repro,
2003-10-31,2.75, -0.06, 12.14, 2.51, 1.81, 8.37, repro,
2003-11-01,2.95, 0.58, 8.35, 2.28, 1.66, 7.36, repro,
2003-11-02,2.65, -0.92, 11.89, 2.25, 1.61, 7.21, repro,
2003-11-03,2.58, 1.07, 3.43, 2.29, 1.68, 7.48, repro,
2003-11-04,2.05, 0.36, 10.58, 2.25, 1.65, 7.44, repro,
2003-11-05,5.88, 2.33, 8.61, 2.45, 1.75, 7.88, repro,
2003-11-06,2.22, -0.51, 11.09, 2.25, 1.62, 7.24, repro,
2003-11-07,2.15, 0.42, 14.33, 2.26, 1.62, 7.28, repro,
2003-11-08,1.39, -0.72, 8.36, 2.29, 1.65, 7.38, repro,
2003-11-09,2.27, 0.57, 9.80, 2.27, 1.63, 7.36, repro,
2003-11-10,2.60, 0.77, 7.25, 2.30, 1.66, 7.46, repro,
2003-11-11,1.67, 1.15, 15.27, 2.37, 1.68, 7.58, repro,
2003-11-12,-1.36, 1.99, 17.20, 2.47, 1.79, 8.06, repro,
2003-11-13,3.81, 1.87, 22.16, 2.75, 2.01, 9.03, repro,
2003-11-17,0.48, 3.20, 9.36, 3.36, 2.40, 11.14, repro,
2003-11-18,2.18, 1.24, 9.83, 2.34, 1.67, 7.37, repro,
2003-11-19,1.00, 2.01, 12.68, 2.24, 1.62, 7.26, repro,
2003-11-20,0.30, 2.03, 16.21, 3.07, 2.12, 9.58, repro,
2003-11-21,1.56, 0.15, 14.79, 2.47, 1.81, 8.52, repro,
2003-11-22,0.76, 2.15, 8.12, 2.46, 1.75, 8.04, repro,
2003-11-23,3.38, 0.83, 6.46, 2.41, 1.69, 7.69, repro,
2003-11-24,3.56, 2.04, 11.82, 2.31, 1.69, 7.54, repro,
2003-11-25,1.91, 0.26, 22.74, 2.35, 1.73, 7.69, repro,
2003-11-26,2.57, 0.02, 11.88, 2.25, 1.63, 7.29, repro,
2003-11-27,2.95, 1.01, 5.86, 2.34, 1.66, 7.50, repro,
2003-11-28,2.90, 1.39, 4.60, 2.34, 1.65, 7.49, repro,
2003-11-29,5.78, 0.79, 20.97, 2.41, 1.69, 7.80, repro,
2003-11-30,1.50, 1.05, 25.05, 2.39, 1.68, 7.67, repro,
2003-12-01,3.58, 1.40, 12.71, 2.23, 1.62, 7.21, repro,
2003-12-02,5.29, 0.31, 3.11, 2.32, 1.69, 7.70, repro,
2003-12-03,5.01, 1.83, -5.02, 2.40, 1.73, 7.88, repro,
2003-12-04,3.36, -0.83, 0.30, 2.38, 1.68, 7.62, repro,
2003-12-05,1.92, -0.14, 2.75, 2.43, 1.70, 7.78, repro,
2003-12-06,2.12, -0.26, -2.89, 2.23, 1.62, 7.22, repro,
2003-12-07,1.41, 0.44, 0.13, 2.31, 1.65, 7.47, repro,
2003-12-08,2.49, 1.19, 8.72, 2.49, 1.76, 8.05, repro,
2003-12-09,2.18, -0.15, 4.47, 2.25, 1.62, 7.37, repro,
2003-12-10,2.04, -0.02, 6.41, 2.54, 1.76, 8.11, repro,
2003-12-11,1.82, 0.45, 13.07, 2.53, 1.73, 8.05, repro,
2003-12-12,0.79, 0.50, 10.04, 2.38, 1.69, 7.65, repro,
2003-12-13,0.93, -2.00, 8.58, 2.42, 1.70, 7.76, repro,
2003-12-14,1.00, 0.77, 1.58, 2.45, 1.71, 7.77, repro,
2003-12-15,2.13, -0.21, 2.14, 2.30, 1.64, 7.43, repro,
2003-12-16,3.75, 3.05, -2.04, 2.40, 1.70, 7.80, repro,
2003-12-17,7.18, 11.35, 3.06, 2.44, 1.71, 7.82, repro,
2003-12-18,-1.26, 4.12, 19.22, 2.57, 1.78, 8.28, repro,
2003-12-19,-2.41, 0.65, 13.46, 2.42, 1.70, 7.79, repro,
2003-12-20,0.29, 0.54, 7.57, 2.53, 1.77, 8.21, repro,
2003-12-21,3.00, 0.68, 5.75, 2.49, 1.77, 8.10, repro,
2003-12-22,1.66, 1.46, 2.85, 2.53, 1.78, 8.27, repro,
2003-12-23,-1.42, -0.96, 6.09, 2.42, 1.69, 7.81, repro,
2003-12-24,1.19, -0.91, 12.50, 2.67, 1.86, 8.51, repro,
2003-12-25,-1.62, 2.35, 20.35, 2.70, 1.92, 8.94, repro,
2003-12-26,-10.87, 2.60, 18.14, 2.37, 1.70, 7.75, repro,
2003-12-27,-5.95, -2.58, 4.63, 2.32, 1.66, 7.48, repro,
2003-12-28,-4.84, -4.90, 0.96, 2.36, 1.67, 7.61, repro,
2003-12-29,-9.32, -4.09, 4.94, 2.35, 1.67, 7.59, repro,
2003-12-30,-8.97, -4.55, -4.96, 2.38, 1.72, 7.88, repro,
2003-12-31,-28.37, 6.76, 27.78, 2.35, 1.69, 7.48, repro,
2004-01-01,-26.61, 7.52, 25.62, 2.44, 1.77, 7.90, repro,
2004-01-02,-27.67, 7.65, 24.90, 2.39, 1.71, 7.72, repro,
2004-01-03,-28.18, 8.45, 22.78, 2.44, 1.73, 7.90, repro,
2004-01-04,-29.75, 11.99, 28.84, 2.40, 1.76, 7.81, repro,
2004-01-05,-27.83, 11.36, 27.69, 2.39, 1.70, 7.69, repro,
2004-01-06,-28.35, 12.15, 25.51, 2.39, 1.74, 7.85, repro,
2004-01-07,-27.19, 10.41, 25.92, 2.31, 1.71, 7.50, repro,
2004-01-08,-24.44, 10.49, 23.30, 2.40, 1.73, 7.71, repro,
2004-01-09,-18.48, 7.57, 8.39, 2.46, 1.81, 7.91, repro,
2004-01-10,-16.00, 4.86, 11.13, 2.27, 1.63, 7.12, repro,
2004-01-11,-14.00, 3.14, 17.08, 2.39, 1.65, 7.65, repro,
2004-01-12,-10.73, 0.22, 15.52, 2.37, 1.69, 7.69, repro,
2004-01-13,-8.49, -0.98, 20.10, 2.25, 1.67, 7.52, repro,
2004-01-14,-4.26, -4.42, 30.10, 2.30, 1.69, 7.52, repro,
2004-01-15,-0.87, -9.31, 35.47, 2.26, 1.62, 7.24, repro,
2004-01-16,2.02, -7.06, 27.56, 2.46, 1.76, 7.87, repro,
2004-01-17,2.41, -5.95, 7.82, 2.42, 1.72, 7.64, repro,
2004-01-18,0.86, 0.21, 4.09, 2.35, 1.74, 7.70, repro,
2004-01-19,2.68, -1.07, 8.04, 2.35, 1.73, 7.67, repro,
2004-01-20,1.93, -0.99, 10.58, 2.32, 1.78, 8.15, repro,
2004-01-21,1.95, 0.76, 0.89, 2.33, 1.71, 7.59, repro,
2004-01-22,1.90, 1.14, 1.73, 2.38, 1.78, 8.11, repro,
2004-01-23,-0.68, 0.59, 1.91, 2.34, 1.69, 7.49, repro,
2004-01-24,0.07, -2.34, 9.56, 2.38, 1.75, 7.77, repro,
2004-01-25,0.73, -1.71, 8.96, 2.46, 1.83, 8.12, repro,
2004-01-26,3.09, 0.43, -2.65, 2.34, 1.73, 7.67, repro,
2004-01-27,1.74, -0.95, 4.57, 2.30, 1.67, 7.36, repro,
2004-01-28,0.64, 0.20, 13.55, 2.38, 1.76, 7.86, repro,
2004-01-29,0.99, -0.15, 11.24, 2.35, 1.70, 7.49, repro,
2004-01-30,1.95, 0.24, 12.81, 2.33, 1.73, 7.65, repro,
2004-01-31,0.70, 0.01, 3.33, 2.31, 1.72, 7.61, repro,
2004-02-01,-0.27, -1.79, -3.13, 2.34, 1.65, 7.31, repro,
2004-02-02,-0.08, -2.05, -5.24, 2.23, 1.63, 7.21, repro,
2004-02-03,-0.99, -0.99, -2.22, 2.32, 1.65, 7.28, repro,
2004-02-04,2.13, 0.89, -7.63, 2.29, 1.66, 7.30, repro,
2004-02-05,-2.26, -0.56, -12.41, 2.24, 1.63, 7.24, repro,
2004-02-06,-4.20, -2.07, -15.86, 2.26, 1.68, 7.53, repro,
2004-02-07,-1.45, -1.14, -11.66, 2.34, 1.71, 7.72, repro,
2004-02-08,-1.94, -1.96, -2.77, 2.31, 1.66, 7.34, repro,
2004-02-09,-0.44, -2.65, -8.31, 2.23, 1.62, 7.19, repro,
2004-02-10,-0.26, -1.15, -9.17, 2.30, 1.63, 7.41, repro,
2004-02-11,-1.51, 0.86, 0.78, 2.26, 1.61, 7.33, repro,
2004-02-12,-1.04, 6.72, 2.60, 2.29, 1.67, 7.53, repro,
2004-02-13,0.58, 0.80, 11.12, 2.31, 1.68, 7.59, repro,
2004-02-14,1.86, 1.35, 4.83, 2.26, 1.62, 7.27, repro,
2004-02-15,2.30, -0.33, -2.83, 2.34, 1.70, 7.56, repro,
2004-02-16,3.55, 0.43, -8.34, 2.35, 1.70, 7.64, repro,
2004-02-17,2.50, 0.35, -5.71, 2.28, 1.62, 7.32, repro,
2004-02-18,1.73, -0.01, -2.36, 2.27, 1.60, 7.29, repro,
2004-02-19,1.33, 0.74, 4.10, 2.25, 1.62, 7.30, repro,
2004-02-20,0.53, 0.59, 6.83, 2.27, 1.62, 7.35, repro,
2004-02-21,1.07, 1.03, 3.80, 2.27, 1.62, 7.33, repro,
2004-02-22,0.81, 1.62, -2.51, 2.30, 1.64, 7.48, repro,
2004-02-23,1.61, 0.51, 0.91, 2.30, 1.64, 7.47, repro,
2004-02-24,1.26, 0.64, 1.92, 2.30, 1.65, 7.54, repro,
2004-02-25,0.42, -0.10, -1.86, 2.30, 1.66, 7.53, repro,
2004-02-26,-1.12, -0.13, -4.29, 2.30, 1.64, 7.51, repro,
2004-02-27,-0.06, -0.32, 1.78, 2.33, 1.64, 7.52, repro,
2004-02-28,0.13, -0.83, 4.91, 2.57, 1.76, 8.02, repro,
2004-02-29,0.94, -0.69, 3.01, 2.38, 1.68, 7.71, repro,
2004-03-01,0.88, -0.55, 5.51, 2.35, 1.68, 7.64, repro,
2004-03-02,0.92, -0.06, -1.24, 2.38, 1.70, 7.74, repro,
2004-03-03,-0.90, -1.52, 2.00, 2.45, 1.73, 7.94, repro,
2004-03-04,-1.02, 0.09, 10.53, 2.39, 1.67, 7.62, repro,
2004-03-05,0.21, 0.79, 5.07, 2.32, 1.64, 7.49, repro,
2004-03-06,0.96, 0.82, -0.15, 2.37, 1.69, 7.71, repro,
2004-03-07,1.47, 0.84, -3.38, 2.32, 1.67, 7.58, repro,
2004-03-08,1.51, 0.88, 2.49, 2.39, 1.69, 7.63, repro,
2004-03-09,-0.51, -0.54, 2.84, 2.60, 1.80, 8.26, repro,
2004-03-10,1.21, 0.36, -2.54, 2.42, 1.69, 7.76, repro,
2004-03-11,-0.08, 0.40, -1.09, 2.35, 1.66, 7.57, repro,
2004-03-12,-0.17, 0.35, 3.00, 2.39, 1.69, 7.71, repro,
2004-03-13,0.90, -0.41, -1.75, 2.45, 1.73, 7.92, repro,
2004-03-14,1.18, -0.73, -4.27, 2.42, 1.70, 7.86, repro,
2004-03-15,1.01, 1.48, 1.44, 2.45, 1.75, 8.06, repro,
2004-03-16,1.99, -0.81, -1.36, 2.45, 1.73, 7.93, repro,
2004-03-17,1.75, 0.95, -9.39, 2.46, 1.80, 8.07, repro,
2004-03-18,1.73, 1.57, -8.68, 2.36, 1.68, 7.70, repro,
2004-03-19,1.34, 1.59, -7.37, 2.37, 1.71, 7.78, repro,
2004-03-20,1.04, 0.43, -5.57, 2.42, 1.74, 7.96, repro,
2004-03-21,3.33, 1.63, -1.17, 2.45, 1.78, 8.17, repro,
2004-03-22,0.94, 0.81, 1.35, 2.37, 1.69, 7.74, repro,
2004-03-23,-1.01, 0.55, -5.21, 2.34, 1.66, 7.59, repro,
2004-03-24,1.08, 0.92, -7.53, 2.36, 1.66, 7.65, repro,
2004-03-25,0.00, 0.39, -7.38, 2.41, 1.68, 7.76, repro,
2004-03-26,-0.41, 1.16, -1.26, 2.34, 1.65, 7.63, repro,
2004-03-27,0.03, -0.55, 2.00, 2.33, 1.68, 7.64, repro,
2004-03-28,-1.72, -0.02, 1.99, 2.29, 1.65, 7.52, repro,
2004-03-29,-0.61, -0.70, 6.61, 2.34, 1.67, 7.65, repro,
2004-03-30,-0.92, -0.57, 6.34, 2.43, 1.69, 7.87, repro,
2004-03-31,1.32, 0.03, 6.52, 2.29, 1.66, 7.61, repro,
2004-04-01,0.89, -0.18, 1.61, 2.37, 1.70, 7.82, repro,
2004-04-02,0.75, -0.50, 3.61, 2.25, 1.63, 7.46, repro,
2004-04-03,-0.74, 1.52, 6.66, 2.37, 1.73, 7.91, repro,
2004-04-04,0.31, 0.92, 9.78, 2.27, 1.64, 7.43, repro,
2004-04-05,0.90, -0.59, 12.09, 2.31, 1.65, 7.49, repro,
2004-04-06,3.94, 0.46, 2.99, 2.28, 1.64, 7.50, repro,
2004-04-07,0.96, 0.71, 9.13, 2.34, 1.68, 7.70, repro,
2004-04-08,1.33, 1.08, 14.16, 2.28, 1.65, 7.56, repro,
2004-04-09,0.86, 1.11, 3.54, 2.27, 1.64, 7.44, repro,
2004-04-10,0.91, -0.23, 2.58, 2.29, 1.63, 7.45, repro,
2004-04-11,0.63, 0.11, -1.04, 2.30, 1.64, 7.61, repro,
2004-04-12,1.29, 0.07, -4.91, 2.29, 1.64, 7.50, repro,
2004-04-13,2.05, 0.41, -4.99, 2.32, 1.71, 7.71, repro,
2004-04-14,1.86, 0.81, 5.55, 2.32, 1.71, 7.72, repro,
2004-04-15,0.77, 0.29, 5.04, 2.30, 1.63, 7.48, repro,
2004-04-16,-0.10, -0.53, -0.22, 2.27, 1.62, 7.38, repro,
2004-04-17,1.20, 1.00, -1.29, 2.26, 1.62, 7.36, repro,
2004-04-18,2.39, -0.38, 3.72, 2.31, 1.65, 7.56, repro,
2004-04-19,-0.34, 2.66, 13.53, 2.46, 1.71, 7.96, repro,
2004-04-20,1.28, 0.15, 20.65, 2.25, 1.61, 7.31, repro,
2004-04-21,0.98, 1.56, 4.72, 2.27, 1.61, 7.34, repro,
2004-04-22,0.90, 1.39, 2.56, 2.27, 1.61, 7.34, repro,
2004-04-23,1.74, 1.34, 3.61, 2.27, 1.61, 7.36, repro,
2004-04-24,0.24, 0.16, 8.67, 2.25, 1.61, 7.33, repro,
2004-04-25,1.29, 1.45, 2.63, 2.32, 1.64, 7.58, repro,
2004-04-26,1.42, 2.50, 4.65, 2.29, 1.61, 7.42, repro,
2004-04-27,0.53, 1.42, 11.48, 2.32, 1.64, 7.49, repro,
2004-04-28,1.10, 2.12, 8.34, 2.30, 1.64, 7.47, repro,
2004-04-29,-0.21, 1.30, 8.74, 2.35, 1.66, 7.57, repro,
2004-04-30,-0.89, 0.76, 4.22, 2.34, 1.66, 7.55, repro,
2004-05-01,0.79, 1.30, 11.70, 2.34, 1.67, 7.60, repro,
2004-05-02,1.57, 0.47, 8.29, 2.44, 1.70, 7.83, repro,
2004-05-03,0.90, 1.23, 1.06, 2.43, 1.69, 7.81, repro,
2004-05-04,0.66, 1.01, 3.26, 2.43, 1.70, 7.83, repro,
2004-05-05,-0.31, -0.13, 12.83, 2.42, 1.69, 7.78, repro,
2004-05-06,0.18, 1.70, 5.28, 2.41, 1.69, 7.80, repro,
2004-05-07,0.59, 1.96, 5.04, 2.54, 1.75, 8.15, repro,
2004-05-08,0.38, -0.94, 5.20, 2.54, 1.72, 7.96, repro,
2004-05-09,1.04, -1.13, 13.21, 2.42, 1.70, 7.81, repro,
2004-05-10,1.51, 2.22, 7.61, 2.35, 1.66, 7.57, repro,